Location: Navajo
(48.7922°N, 105.0603°W)
Time: 19:38:10
(UTC+00:00)

DUCHIFAT 1 - Pass Details

Date: 28 June 2022
Orbit: 580 x 596 km, 98.0° (Epoch: 08 August)

Event Time Altitude Azimuth Distance (km) Brightness Sun altitude
Rises 08:27:46 0° 29° (NNE) 2,841 ? -15.5°
Reaches altitude 10° 08:30:43 10° 52° (NE) 1,936 ? -15.3°
Maximum altitude 08:33:18 16° 90° (E) 1,588 ? -15.2°
Drops below altitude 10° 08:35:53 10° 128° (SE) 1,931 ? -15.0°
Enters shadow 08:37:19 - 142° (SE) 2,334 ? -15.0°
